Find HORACIO

NORAD ID: 59098 Int'l Des: 2024-043 Owner: SATLAN Country: E operational
LEOCIRCULARRETROGRADESSO

Live Position

Loading 3D Globe...

About HORACIO

Description loading...

Upcoming Passes

Passes for default location (London). Set your location on the main map for personalized predictions.

Altitude History

Loading altitude history...

Two-Line Element Set

1 59098U 24043A 26107.31733954 .00002193 00000-0 18940-3 0 9995
2 59098 97.8426 238.7456 0009549 214.3998 145.6607 14.98265639115556
Epoch: Apr 17, 2026 • Age: 7 hours

Current Status

Altitude 574.6 km
Velocity 7.58 km/s
Sub-Earth Point 35.17°N, 1.23°W
Launch Date Mar 4, 2024
Age 2.1 years
Type other

Technical Details

Classification Payload
Mass 20.00 kg
Dry Mass 20.00 kg
Total Mass 20.00 kg
Length 0.40 m
Diameter 0.20 m
Span 0.40 m
Shape Box
Manufacturer NANAV
Bus Type Cubesat 16U M16P
Phase Status In Orbit
Owner/State SATLAN/E

Most Searched